Hagerstown, MD

8:00 PM EST on January 23, 2018 (GMT -0500)
Hagerstown Regional-Henson

Weather History for KHGR - March, 2015

Change the Weather History Date:

Monday, March 30, 2015

  Actual Average Record
Temperature  
Mean Temperature 51 °F 47 °F  
Max Temperature 60 °F 57 °F 87 °F (1998)
Min Temperature 41 °F 37 °F 27 °F (2008)
Degree Days  
Heating Degree Days 14 18  
Month to date heating degree days 767 709  
Since 1 July heating degree days 4773 4612  
Cooling Degree Days 0 0  
Month to date cooling degree days 0 0  
Year to date cooling degree days 0 0  
Moisture  
Dew Point 19 °F    
Average Humidity 37    
Maximum Humidity 53    
Minimum Humidity 21    
Precipitation  
Precipitation T in 0.14 in 0.60 in (2014)
Month to date precipitation 2.26 3.23  
Year to date precipitation 4.54 8.46  
Sea Level Pressure  
Sea Level Pressure 29.94 in    
Wind  
Wind Speed 13 mph (WSW)    
Max Wind Speed 33 mph    
Max Gust Speed 40 mph    
Visibility 10 miles    
Events      
T = Trace of Precipitation, MM = Missing Value Source: NWS Daily Summary

Daily Weather History Graph

Daily Weather History Graph

Search for Another Location

Airport or City:

Trip Planner

Search our weather history database for the weather conditions in past years. The results will help you decide how hot, cold, wet, or windy it might be!

Date:

Astronomy

Mar. 30, 2015 Rise Set
Actual Time 6:58 AM EDT 7:32 PM EDT
Civil Twilight 6:31 AM EDT 7:59 PM EDT
Nautical Twilight 5:59 AM EDT 8:31 PM EDT
Astronomical Twilight 5:26 AM EDT 9:04 PM EDT
Moon 3:21 PM EDT (3/30) 4:20 AM EDT (3/30)
Length of Visible Light 13h 28m
Length of Day
12h 34m
Waxing Gibbous, 80% of the Moon is Illuminated
Mar 30
Waxing Gibbous
Apr 4
Full
Apr 11
Last Quarter
Apr 18
New
Apr 25
First Quarter

Hourly Weather History & Observations

Time (EDT) Temp. Windchill Dew Point Humidity Pressure Visibility Wind Dir Wind Speed Gust Speed Precip Events Conditions
12:53 AM 42.1 °F 36.1 °F 8.1 °F 25% 30.06 in 10.0 mi South 10.4 mph - N/A   Overcast
1:53 AM 42.1 °F 37.1 °F 12.9 °F 31% 30.04 in 10.0 mi SSE 8.1 mph - N/A   Overcast
2:53 AM 42.1 °F 37.7 °F 10.9 °F 28% 30.03 in 10.0 mi South 6.9 mph - N/A   Overcast
3:53 AM 41.0 °F 36.4 °F 12.0 °F 31% 29.97 in 10.0 mi SE 6.9 mph - N/A   Overcast
4:53 AM 41.0 °F 35.8 °F 12.0 °F 31% 29.94 in 10.0 mi SSE 8.1 mph - N/A   Overcast
5:53 AM 42.1 °F 36.6 °F 12.9 °F 31% 29.92 in 10.0 mi South 9.2 mph - N/A   Overcast
6:53 AM 42.1 °F 36.1 °F 14.0 °F 32% 29.91 in 10.0 mi South 10.4 mph - N/A   Overcast
7:53 AM 43.0 °F 38.2 °F 15.1 °F 32% 29.91 in 10.0 mi SSW 8.1 mph - N/A   Overcast
8:53 AM 43.0 °F 37.7 °F 16.0 °F 34% 29.91 in 10.0 mi SSW 9.2 mph - N/A   Overcast
9:53 AM 45.0 °F 41.8 °F 28.0 °F 52% 29.92 in 10.0 mi SW 5.8 mph - 0.00 in   Overcast
10:53 AM 48.9 °F - 30.9 °F 50% 29.91 in 10.0 mi WSW 11.5 mph 23.0 mph N/A   Overcast
11:20 AM 48.9 °F - 32.0 °F 52% 29.87 in 10.0 mi NW 13.8 mph - N/A   Overcast
11:53 AM 52.0 °F - 28.0 °F 40% 29.91 in 10.0 mi WNW 18.4 mph - N/A   Mostly Cloudy
12:53 PM 55.0 °F - 26.1 °F 33% 29.91 in 10.0 mi West 16.1 mph 21.9 mph N/A   Scattered Clouds
1:53 PM 57.0 °F - 24.1 °F 28% 29.90 in 10.0 mi WNW 21.9 mph 27.6 mph N/A   Scattered Clouds
2:53 PM 57.0 °F - 23.0 °F 27% 29.88 in 10.0 mi West 26.5 mph 31.1 mph N/A   Mostly Cloudy
3:53 PM 59.0 °F - 21.9 °F 24% 29.88 in 10.0 mi WNW 21.9 mph 28.8 mph N/A   Scattered Clouds
4:53 PM 59.0 °F - 19.0 °F 21% 29.88 in 10.0 mi WNW 24.2 mph 40.3 mph N/A   Scattered Clouds
5:53 PM 57.0 °F - 21.0 °F 25% 29.89 in 10.0 mi WNW 21.9 mph 27.6 mph N/A   Mostly Cloudy
6:53 PM 53.1 °F - 19.9 °F 27% 29.92 in 10.0 mi WNW 20.7 mph 27.6 mph N/A   Partly Cloudy
7:53 PM 52.0 °F - 19.9 °F 28% 29.95 in 10.0 mi WNW 19.6 mph 25.3 mph N/A   Overcast
8:53 PM 51.1 °F - 19.0 °F 28% 29.97 in 10.0 mi West 9.2 mph - N/A   Scattered Clouds
9:53 PM 50.0 °F - 19.0 °F 29% 29.98 in 10.0 mi SW 5.8 mph - N/A   Mostly Cloudy
10:53 PM 48.9 °F - 19.9 °F 32% 29.97 in 10.0 mi SW 5.8 mph - N/A   Scattered Clouds
11:53 PM 48.0 °F - 21.0 °F 34% 29.96 in 10.0 mi SW 6.9 mph - N/A   Partly Cloudy